contact:dominique.lefevre@mio.osupytheas.fr, maurice.libes@osupytheas.fr, didier.mallarino@osupytheas.fr
Project:EMSO http://www.emso-fr.org/EMSO-France
Depth: 2436.0 m
Title:EMSO Ligure Ouest : Data MII capteur MICROCAT
DateTime_Computer,Latitude,Longitude,Temperature,Conductivity,Pressure,DateTime_Instrument
DateTime_Computer,Latitude,Longitude,degC,S m-1,dbar,DateTime_Instrument
2021-05-09T00:00:11Z,42.805,6.029,13.2995,4.59999,2470.577,2021-5-09T02:01:22Z
2021-05-09T00:03:15Z,42.805,6.029,13.2993,4.59998,2470.637,2021-5-09T02:04:25Z
2021-05-09T00:06:18Z,42.805,6.029,13.2996,4.59997,2470.6,2021-5-09T02:07:28Z
2021-05-09T00:09:21Z,42.805,6.029,13.2997,4.59999,2470.614,2021-5-09T02:10:31Z
2021-05-09T00:12:24Z,42.805,6.029,13.2996,4.59998,2470.577,2021-5-09T02:13:34Z
2021-05-09T00:15:27Z,42.805,6.029,13.2991,4.60003,2470.6,2021-5-09T02:16:38Z
2021-05-09T00:18:30Z,42.805,6.029,13.2991,4.60003,2470.6,2021-5-09T02:19:41Z
2021-05-09T00:21:33Z,42.805,6.029,13.2996,4.60000,2470.577,2021-5-09T02:22:44Z
2021-05-09T00:24:36Z,42.805,6.029,13.2995,4.59999,2470.577,2021-5-09T02:25:47Z
2021-05-09T00:27:39Z,42.805,6.029,13.2991,4.60001,2470.614,2021-5-09T02:28:50Z
2021-05-09T00:30:43Z,42.805,6.029,13.2996,4.59999,2470.577,2021-5-09T02:31:53Z
2021-05-09T00:33:46Z,42.805,6.029,13.2991,4.59998,2470.624,2021-5-09T02:34:56Z
2021-05-09T00:36:49Z,42.805,6.029,13.2997,4.59999,2470.624,2021-5-09T02:37:59Z
2021-05-09T00:39:52Z,42.805,6.029,13.2995,4.60000,2470.624,2021-5-09T02:41:02Z
2021-05-09T00:42:55Z,42.805,6.029,13.2994,4.59999,2470.614,2021-5-09T02:44:06Z
2021-05-09T00:45:58Z,42.805,6.029,13.2995,4.60006,2470.577,2021-5-09T02:47:09Z
2021-05-09T00:49:01Z,42.805,6.029,13.2998,4.60001,2470.6,2021-5-09T02:50:12Z
2021-05-09T00:52:04Z,42.805,6.029,13.2998,4.59999,2470.624,2021-5-09T02:53:15Z
2021-05-09T00:55:08Z,42.805,6.029,13.2991,4.59998,2470.6,2021-5-09T02:56:18Z
2021-05-09T00:58:11Z,42.805,6.029,13.2995,4.59998,2470.624,2021-5-09T02:59:21Z
2021-05-09T01:01:14Z,42.805,6.029,13.2990,4.59999,2470.624,2021-5-09T03:02:24Z
2021-05-09T01:04:17Z,42.805,6.029,13.2991,4.59998,2470.577,2021-5-09T03:05:27Z
2021-05-09T01:07:20Z,42.805,6.029,13.2997,4.59998,2470.577,2021-5-09T03:08:30Z
2021-05-09T01:10:23Z,42.805,6.029,13.2989,4.59998,2470.624,2021-5-09T03:11:34Z
2021-05-09T01:13:26Z,42.805,6.029,13.2993,4.59999,2470.637,2021-5-09T03:14:37Z
2021-05-09T01:16:29Z,42.805,6.029,13.2993,4.59998,2470.577,2021-5-09T03:17:40Z
2021-05-09T01:19:32Z,42.805,6.029,13.2994,4.59999,2470.624,2021-5-09T03:20:43Z
2021-05-09T01:22:36Z,42.805,6.029,13.2992,4.59997,2470.624,2021-5-09T03:23:46Z
2021-05-09T01:25:39Z,42.805,6.029,13.2991,4.59998,2470.624,2021-5-09T03:26:49Z
2021-05-09T01:28:42Z,42.805,6.029,13.2993,4.59997,2470.577,2021-5-09T03:29:52Z
2021-05-09T01:31:45Z,42.805,6.029,13.2996,4.59996,2470.6,2021-5-09T03:32:55Z
2021-05-09T01:34:48Z,42.805,6.029,13.2992,4.59998,2470.624,2021-5-09T03:35:59Z
2021-05-09T01:37:51Z,42.805,6.029,13.2990,4.59998,2470.624,2021-5-09T03:39:02Z
2021-05-09T01:40:54Z,42.805,6.029,13.2989,4.59998,2470.6,2021-5-09T03:42:05Z
2021-05-09T01:43:57Z,42.805,6.029,13.2993,4.60000,2470.6,2021-5-09T03:45:08Z
2021-05-09T01:47:01Z,42.805,6.029,13.2993,4.59999,2470.6,2021-5-09T03:48:11Z
2021-05-09T01:50:04Z,42.805,6.029,13.2991,4.59997,2470.661,2021-5-09T03:51:14Z
2021-05-09T01:53:07Z,42.805,6.029,13.2993,4.59999,2470.6,2021-5-09T03:54:17Z
2021-05-09T01:56:10Z,42.805,6.029,13.2994,4.59999,2470.624,2021-5-09T03:57:20Z
2021-05-09T01:59:13Z,42.805,6.029,13.2993,4.59999,2470.637,2021-5-09T04:00:24Z
2021-05-09T02:02:16Z,42.805,6.029,13.2991,4.59997,2470.646,2021-5-09T04:03:27Z
2021-05-09T02:05:19Z,42.805,6.029,13.2993,4.59997,2470.61,2021-5-09T04:06:30Z
2021-05-09T02:08:22Z,42.805,6.029,13.2993,4.60011,2470.6,2021-5-09T04:09:33Z
2021-05-09T02:11:25Z,42.805,6.029,13.2993,4.59999,2470.624,2021-5-09T04:12:36Z
2021-05-09T02:14:29Z,42.805,6.029,13.2996,4.59999,2470.661,2021-5-09T04:15:39Z
2021-05-09T02:17:32Z,42.805,6.029,13.2992,4.59999,2470.661,2021-5-09T04:18:42Z
2021-05-09T02:20:35Z,42.805,6.029,13.2992,4.59999,2470.646,2021-5-09T04:21:45Z
2021-05-09T02:23:38Z,42.805,6.029,13.2996,4.59999,2470.646,2021-5-09T04:24:48Z
2021-05-09T02:26:41Z,42.805,6.029,13.2993,4.59999,2470.624,2021-5-09T04:27:52Z
2021-05-09T02:29:44Z,42.805,6.029,13.2993,4.59998,2470.684,2021-5-09T04:30:55Z
2021-05-09T02:32:47Z,42.805,6.029,13.2991,4.59998,2470.67,2021-5-09T04:33:58Z
2021-05-09T02:35:50Z,42.805,6.029,13.2991,4.59997,2470.646,2021-5-09T04:37:01Z
2021-05-09T02:38:54Z,42.805,6.029,13.2993,4.59996,2470.624,2021-5-09T04:40:04Z
2021-05-09T02:41:57Z,42.805,6.029,13.2993,4.59997,2470.661,2021-5-09T04:43:07Z
2021-05-09T02:45:00Z,42.805,6.029,13.2990,4.59995,2470.67,2021-5-09T04:46:10Z
2021-05-09T02:48:03Z,42.805,6.029,13.2991,4.59996,2470.684,2021-5-09T04:49:13Z
2021-05-09T02:51:06Z,42.805,6.029,13.2990,4.59997,2470.646,2021-5-09T04:52:16Z
2021-05-09T02:54:09Z,42.805,6.029,13.2993,4.59996,2470.624,2021-5-09T04:55:20Z
2021-05-09T02:57:12Z,42.805,6.029,13.2995,4.59996,2470.67,2021-5-09T04:58:23Z
2021-05-09T03:00:15Z,42.805,6.029,13.2993,4.59997,2470.67,2021-5-09T05:01:26Z
2021-05-09T03:03:18Z,42.805,6.029,13.2991,4.59996,2470.661,2021-5-09T05:04:29Z
2021-05-09T03:06:22Z,42.805,6.029,13.2991,4.59997,2470.67,2021-5-09T05:07:32Z
2021-05-09T03:09:25Z,42.805,6.029,13.2991,4.59996,2470.693,2021-5-09T05:10:35Z
2021-05-09T03:12:28Z,42.805,6.029,13.2993,4.59997,2470.707,2021-5-09T05:13:38Z
2021-05-09T03:15:31Z,42.805,6.029,13.2991,4.59998,2470.67,2021-5-09T05:16:41Z
2021-05-09T03:18:34Z,42.805,6.029,13.2991,4.59997,2470.73,2021-5-09T05:19:45Z
2021-05-09T03:21:37Z,42.805,6.029,13.2993,4.59997,2470.707,2021-5-09T05:22:48Z
2021-05-09T03:24:40Z,42.805,6.029,13.2990,4.60000,2470.67,2021-5-09T05:25:51Z
2021-05-09T03:27:43Z,42.805,6.029,13.2989,4.59999,2470.67,2021-5-09T05:28:54Z
2021-05-09T03:30:47Z,42.805,6.029,13.2993,4.59998,2470.717,2021-5-09T05:31:57Z
2021-05-09T03:33:50Z,42.805,6.029,13.2989,4.59997,2470.693,2021-5-09T05:35:00Z
2021-05-09T03:36:53Z,42.805,6.029,13.2990,4.59997,2470.73,2021-5-09T05:38:03Z
2021-05-09T03:39:56Z,42.805,6.029,13.2990,4.59996,2470.717,2021-5-09T05:41:06Z
2021-05-09T03:42:59Z,42.805,6.029,13.2989,4.59997,2470.693,2021-5-09T05:44:10Z
2021-05-09T03:46:02Z,42.805,6.029,13.2990,4.59997,2470.693,2021-5-09T05:47:13Z
2021-05-09T03:49:05Z,42.805,6.029,13.2991,4.59997,2470.73,2021-5-09T05:50:16Z
2021-05-09T03:52:08Z,42.805,6.029,13.2991,4.59996,2470.74,2021-5-09T05:53:19Z
2021-05-09T03:55:12Z,42.805,6.029,13.2993,4.59996,2470.717,2021-5-09T05:56:22Z
2021-05-09T03:58:15Z,42.805,6.029,13.2992,4.59997,2470.74,2021-5-09T05:59:25Z
2021-05-09T04:01:18Z,42.805,6.029,13.2991,4.59996,2470.717,2021-5-09T06:02:28Z
2021-05-09T04:04:21Z,42.805,6.029,13.2990,4.59998,2470.693,2021-5-09T06:05:31Z
2021-05-09T04:07:24Z,42.805,6.029,13.2991,4.59997,2470.73,2021-5-09T06:08:34Z
2021-05-09T04:10:27Z,42.805,6.029,13.2990,4.59997,2470.693,2021-5-09T06:11:38Z
2021-05-09T04:13:30Z,42.805,6.029,13.2990,4.59997,2470.717,2021-5-09T06:14:41Z
2021-05-09T04:16:33Z,42.805,6.029,13.2991,4.59999,2470.777,2021-5-09T06:17:44Z
2021-05-09T04:19:36Z,42.805,6.029,13.2993,4.59997,2470.74,2021-5-09T06:20:47Z
2021-05-09T04:22:40Z,42.805,6.029,13.2994,4.59999,2470.754,2021-5-09T06:23:50Z
2021-05-09T04:25:43Z,42.805,6.029,13.2996,4.59998,2470.777,2021-5-09T06:26:53Z
2021-05-09T04:28:46Z,42.805,6.029,13.2996,4.59999,2470.754,2021-5-09T06:29:56Z
2021-05-09T04:31:49Z,42.805,6.029,13.2993,4.60000,2470.763,2021-5-09T06:32:59Z
2021-05-09T04:34:52Z,42.805,6.029,13.2990,4.59998,2470.777,2021-5-09T06:36:03Z
2021-05-09T04:37:55Z,42.805,6.029,13.2990,4.59998,2470.787,2021-5-09T06:39:06Z
2021-05-09T04:40:58Z,42.805,6.029,13.2991,4.60002,2470.777,2021-5-09T06:42:09Z
2021-05-09T04:44:01Z,42.805,6.029,13.2991,4.59999,2470.777,2021-5-09T06:45:12Z
2021-05-09T04:47:05Z,42.805,6.029,13.2993,4.60002,2470.763,2021-5-09T06:48:15Z
2021-05-09T04:50:08Z,42.805,6.029,13.2991,4.60001,2470.763,2021-5-09T06:51:18Z
2021-05-09T04:53:11Z,42.805,6.029,13.2990,4.59999,2470.74,2021-5-09T06:54:21Z
2021-05-09T04:56:14Z,42.805,6.029,13.2992,4.59999,2470.8,2021-5-09T06:57:24Z
2021-05-09T04:59:17Z,42.805,6.029,13.2990,4.59999,2470.74,2021-5-09T07:00:28Z
2021-05-09T05:02:20Z,42.805,6.029,13.2991,4.59999,2470.763,2021-5-09T07:03:31Z
2021-05-09T05:05:23Z,42.805,6.029,13.2991,4.60001,2470.777,2021-5-09T07:06:34Z
2021-05-09T05:08:26Z,42.805,6.029,13.2992,4.59999,2470.763,2021-5-09T07:09:37Z
2021-05-09T05:11:29Z,42.805,6.029,13.2994,4.60001,2470.787,2021-5-09T07:12:40Z
2021-05-09T05:14:33Z,42.805,6.029,13.2993,4.60000,2470.777,2021-5-09T07:15:43Z
2021-05-09T05:17:36Z,42.805,6.029,13.2995,4.60000,2470.787,2021-5-09T07:18:46Z
2021-05-09T05:20:39Z,42.805,6.029,13.2993,4.60000,2470.81,2021-5-09T07:21:49Z
2021-05-09T05:23:42Z,42.805,6.029,13.2996,4.59999,2470.787,2021-5-09T07:24:52Z
2021-05-09T05:26:45Z,42.805,6.029,13.2993,4.59999,2470.787,2021-5-09T07:27:56Z
2021-05-09T05:29:48Z,42.805,6.029,13.2994,4.59999,2470.787,2021-5-09T07:30:59Z
2021-05-09T05:32:51Z,42.805,6.029,13.2989,4.60001,2470.763,2021-5-09T07:34:02Z
2021-05-09T05:35:54Z,42.805,6.029,13.2994,4.59999,2470.777,2021-5-09T07:37:05Z
2021-05-09T05:38:58Z,42.805,6.029,13.2991,4.59999,2470.8,2021-5-09T07:40:08Z
2021-05-09T05:42:01Z,42.805,6.029,13.2995,4.60000,2470.763,2021-5-09T07:43:11Z
2021-05-09T05:45:04Z,42.805,6.029,13.2993,4.59999,2470.763,2021-5-09T07:46:14Z
2021-05-09T05:48:07Z,42.805,6.029,13.2993,4.60004,2470.8,2021-5-09T07:49:17Z
2021-05-09T05:51:10Z,42.805,6.029,13.2993,4.60000,2470.777,2021-5-09T07:52:21Z
2021-05-09T05:54:13Z,42.805,6.029,13.2995,4.60000,2470.787,2021-5-09T07:55:24Z
2021-05-09T05:57:16Z,42.805,6.029,13.2997,4.60002,2470.8,2021-5-09T07:58:27Z
2021-05-09T06:00:19Z,42.805,6.029,13.2993,4.60000,2470.787,2021-5-09T08:01:30Z
2021-05-09T06:03:22Z,42.805,6.029,13.2996,4.60003,2470.763,2021-5-09T08:04:33Z
2021-05-09T06:06:26Z,42.805,6.029,13.2993,4.60002,2470.787,2021-5-09T08:07:36Z
2021-05-09T06:09:29Z,42.805,6.029,13.2993,4.60001,2470.787,2021-5-09T08:10:39Z
2021-05-09T06:12:32Z,42.805,6.029,13.2998,4.60000,2470.754,2021-5-09T08:13:42Z
2021-05-09T06:15:35Z,42.805,6.029,13.2994,4.60001,2470.787,2021-5-09T08:16:45Z
2021-05-09T06:18:38Z,42.805,6.029,13.2992,4.60001,2470.787,2021-5-09T08:19:49Z
2021-05-09T06:21:41Z,42.805,6.029,13.2993,4.60002,2470.787,2021-5-09T08:22:52Z
2021-05-09T06:24:44Z,42.805,6.029,13.2993,4.60001,2470.824,2021-5-09T08:25:55Z
2021-05-09T06:27:47Z,42.805,6.029,13.2993,4.60001,2470.777,2021-5-09T08:28:58Z
2021-05-09T06:30:51Z,42.805,6.029,13.2996,4.60001,2470.763,2021-5-09T08:32:01Z
2021-05-09T06:33:54Z,42.805,6.029,13.2998,4.60006,2470.787,2021-5-09T08:35:04Z
2021-05-09T06:36:57Z,42.805,6.029,13.2996,4.60003,2470.763,2021-5-09T08:38:07Z
2021-05-09T06:40:00Z,42.805,6.029,13.2993,4.60001,2470.787,2021-5-09T08:41:10Z
2021-05-09T06:43:03Z,42.805,6.029,13.2990,4.60000,2470.74,2021-5-09T08:44:14Z
2021-05-09T06:46:06Z,42.805,6.029,13.2993,4.60001,2470.763,2021-5-09T08:47:17Z
2021-05-09T06:49:09Z,42.805,6.029,13.2992,4.59999,2470.787,2021-5-09T08:50:20Z
2021-05-09T06:52:12Z,42.805,6.029,13.2995,4.60000,2470.8,2021-5-09T08:53:23Z
2021-05-09T06:55:15Z,42.805,6.029,13.2995,4.60000,2470.763,2021-5-09T08:56:26Z
2021-05-09T06:58:19Z,42.805,6.029,13.2996,4.60000,2470.787,2021-5-09T08:59:29Z
2021-05-09T07:01:22Z,42.805,6.029,13.2996,4.60002,2470.787,2021-5-09T09:02:32Z
2021-05-09T07:04:25Z,42.805,6.029,13.2992,4.60002,2470.754,2021-5-09T09:05:35Z
2021-05-09T07:07:28Z,42.805,6.029,13.2993,4.60004,2470.777,2021-5-09T09:08:38Z
2021-05-09T07:10:31Z,42.805,6.029,13.2992,4.60002,2470.74,2021-5-09T09:11:42Z
2021-05-09T07:13:34Z,42.805,6.029,13.2994,4.60001,2470.777,2021-5-09T09:14:45Z
2021-05-09T07:16:37Z,42.805,6.029,13.2995,4.60001,2470.74,2021-5-09T09:17:48Z
2021-05-09T07:19:40Z,42.805,6.029,13.2991,4.60002,2470.763,2021-5-09T09:20:51Z
2021-05-09T07:22:43Z,42.805,6.029,13.2994,4.60001,2470.777,2021-5-09T09:23:54Z
2021-05-09T07:25:47Z,42.805,6.029,13.2993,4.60001,2470.763,2021-5-09T09:26:57Z
2021-05-09T07:28:50Z,42.805,6.029,13.2994,4.60001,2470.777,2021-5-09T09:30:00Z
2021-05-09T07:31:53Z,42.805,6.029,13.2991,4.60002,2470.74,2021-5-09T09:33:03Z
2021-05-09T07:34:56Z,42.805,6.029,13.2997,4.60001,2470.787,2021-5-09T09:36:07Z
2021-05-09T07:37:59Z,42.805,6.029,13.2994,4.60001,2470.74,2021-5-09T09:39:10Z
2021-05-09T07:41:02Z,42.805,6.029,13.2996,4.60001,2470.74,2021-5-09T09:42:13Z
2021-05-09T07:44:05Z,42.805,6.029,13.2998,4.60002,2470.763,2021-5-09T09:45:16Z
2021-05-09T07:47:08Z,42.805,6.029,13.2993,4.60003,2470.763,2021-5-09T09:48:19Z
2021-05-09T07:50:12Z,42.805,6.029,13.2998,4.60002,2470.754,2021-5-09T09:51:22Z
2021-05-09T07:53:15Z,42.805,6.029,13.2992,4.60002,2470.763,2021-5-09T09:54:25Z
2021-05-09T07:56:18Z,42.805,6.029,13.2992,4.60001,2470.754,2021-5-09T09:57:28Z
2021-05-09T07:59:21Z,42.805,6.029,13.2999,4.60002,2470.717,2021-5-09T10:00:31Z
2021-05-09T08:02:24Z,42.805,6.029,13.3001,4.60003,2470.763,2021-5-09T10:03:35Z
2021-05-09T08:05:27Z,42.805,6.029,13.2996,4.60001,2470.73,2021-5-09T10:06:38Z
2021-05-09T08:08:30Z,42.805,6.029,13.2996,4.60003,2470.717,2021-5-09T10:09:41Z
2021-05-09T08:11:33Z,42.805,6.029,13.2993,4.60001,2470.73,2021-5-09T10:12:44Z
2021-05-09T08:14:36Z,42.805,6.029,13.2994,4.60003,2470.726,2021-5-09T10:15:47Z
2021-05-09T08:17:40Z,42.805,6.029,13.2996,4.60009,2470.707,2021-5-09T10:18:50Z
2021-05-09T08:20:43Z,42.805,6.029,13.3017,4.60025,2470.73,2021-5-09T10:21:53Z
2021-05-09T08:23:46Z,42.805,6.029,13.3012,4.60018,2470.717,2021-5-09T10:24:56Z
2021-05-09T08:26:49Z,42.805,6.029,13.3010,4.60028,2470.754,2021-5-09T10:28:00Z
2021-05-09T08:29:52Z,42.805,6.029,13.3019,4.60032,2470.717,2021-5-09T10:31:03Z
2021-05-09T08:32:55Z,42.805,6.029,13.3006,4.60016,2470.693,2021-5-09T10:34:06Z
2021-05-09T08:35:58Z,42.805,6.029,13.2995,4.60003,2470.717,2021-5-09T10:37:09Z
2021-05-09T08:39:01Z,42.805,6.029,13.2995,4.60002,2470.684,2021-5-09T10:40:12Z
2021-05-09T08:42:05Z,42.805,6.029,13.3005,4.60016,2470.707,2021-5-09T10:43:15Z
2021-05-09T08:45:08Z,42.805,6.029,13.3022,4.60006,2470.684,2021-5-09T10:46:18Z
2021-05-09T08:48:11Z,42.805,6.029,13.3018,4.60016,2470.717,2021-5-09T10:49:21Z
2021-05-09T08:51:14Z,42.805,6.029,13.3000,4.60024,2470.717,2021-5-09T10:52:24Z
2021-05-09T08:54:17Z,42.805,6.029,13.3018,4.60021,2470.661,2021-5-09T10:55:28Z
2021-05-09T08:57:20Z,42.805,6.029,13.3014,4.60029,2470.707,2021-5-09T10:58:31Z
2021-05-09T09:00:23Z,42.805,6.029,13.3001,4.60023,2470.73,2021-5-09T11:01:34Z
2021-05-09T09:03:26Z,42.805,6.029,13.3009,4.60043,2470.693,2021-5-09T11:04:37Z
2021-05-09T09:06:30Z,42.805,6.029,13.3015,4.60043,2470.693,2021-5-09T11:07:40Z
2021-05-09T09:09:33Z,42.805,6.029,13.3008,4.60033,2470.717,2021-5-09T11:10:43Z
2021-05-09T09:12:36Z,42.805,6.029,13.3010,4.60028,2470.707,2021-5-09T11:13:46Z
2021-05-09T09:15:39Z,42.805,6.029,13.3010,4.60057,2470.707,2021-5-09T11:16:49Z
2021-05-09T09:18:42Z,42.805,6.029,13.3012,4.60021,2470.703,2021-5-09T11:19:53Z
2021-05-09T09:21:45Z,42.805,6.029,13.3024,4.60021,2470.707,2021-5-09T11:22:56Z
2021-05-09T09:24:48Z,42.805,6.029,13.3018,4.60018,2470.67,2021-5-09T11:25:59Z
2021-05-09T09:27:51Z,42.805,6.029,13.3017,4.60050,2470.693,2021-5-09T11:29:02Z
2021-05-09T09:30:55Z,42.805,6.029,13.3013,4.60029,2470.693,2021-5-09T11:32:05Z
2021-05-09T09:33:58Z,42.805,6.029,13.3019,4.60030,2470.684,2021-5-09T11:35:08Z
2021-05-09T09:37:01Z,42.805,6.029,13.3014,4.60055,2470.661,2021-5-09T11:38:11Z
2021-05-09T09:40:04Z,42.805,6.029,13.3011,4.60059,2470.707,2021-5-09T11:41:14Z
2021-05-09T09:43:07Z,42.805,6.029,13.3019,4.60031,2470.693,2021-5-09T11:44:18Z
2021-05-09T09:46:10Z,42.805,6.029,13.3015,4.60057,2470.684,2021-5-09T11:47:21Z
2021-05-09T09:49:13Z,42.805,6.029,13.3010,4.60035,2470.684,2021-5-09T11:50:24Z
2021-05-09T09:52:16Z,42.805,6.029,13.3015,4.60036,2470.67,2021-5-09T11:53:27Z
2021-05-09T09:55:20Z,42.805,6.029,13.3006,4.60052,2470.707,2021-5-09T11:56:30Z
2021-05-09T09:58:23Z,42.805,6.029,13.3012,4.60049,2470.693,2021-5-09T11:59:33Z
2021-05-09T10:01:26Z,42.805,6.029,13.3027,4.60048,2470.693,2021-5-09T12:02:36Z
2021-05-09T10:04:29Z,42.805,6.029,13.3005,4.60067,2470.684,2021-5-09T12:05:39Z
2021-05-09T10:07:32Z,42.805,6.029,13.3011,4.60064,2470.646,2021-5-09T12:08:43Z
2021-05-09T10:10:35Z,42.805,6.029,13.3012,4.60046,2470.67,2021-5-09T12:11:46Z
2021-05-09T10:13:38Z,42.805,6.029,13.3009,4.60059,2470.661,2021-5-09T12:14:49Z
2021-05-09T10:16:41Z,42.805,6.029,13.3015,4.60069,2470.646,2021-5-09T12:17:52Z
2021-05-09T10:19:45Z,42.805,6.029,13.3014,4.60064,2470.707,2021-5-09T12:20:55Z
2021-05-09T10:22:48Z,42.805,6.029,13.3019,4.60066,2470.637,2021-5-09T12:23:58Z
2021-05-09T10:25:51Z,42.805,6.029,13.3009,4.60062,2470.661,2021-5-09T12:27:01Z
2021-05-09T10:28:54Z,42.805,6.029,13.3008,4.60031,2470.693,2021-5-09T12:30:04Z
2021-05-09T10:31:57Z,42.805,6.029,13.3007,4.60036,2470.646,2021-5-09T12:33:08Z
2021-05-09T10:35:00Z,42.805,6.029,13.3005,4.60031,2470.646,2021-5-09T12:36:11Z
2021-05-09T10:38:03Z,42.805,6.029,13.3004,4.60046,2470.637,2021-5-09T12:39:14Z
2021-05-09T10:41:06Z,42.805,6.029,13.3015,4.60043,2470.646,2021-5-09T12:42:17Z
2021-05-09T10:44:10Z,42.805,6.029,13.3010,4.60065,2470.646,2021-5-09T12:45:20Z
2021-05-09T10:47:13Z,42.805,6.029,13.3006,4.60049,2470.661,2021-5-09T12:48:23Z
2021-05-09T10:50:16Z,42.805,6.029,13.3010,4.60050,2470.646,2021-5-09T12:51:26Z
2021-05-09T10:53:19Z,42.805,6.029,13.3007,4.60045,2470.624,2021-5-09T12:54:29Z
2021-05-09T10:56:22Z,42.805,6.029,13.3012,4.60055,2470.637,2021-5-09T12:57:33Z
2021-05-09T10:59:25Z,42.805,6.029,13.3009,4.60047,2470.646,2021-5-09T13:00:36Z
2021-05-09T11:02:28Z,42.805,6.029,13.3006,4.60062,2470.624,2021-5-09T13:03:39Z
2021-05-09T11:05:31Z,42.805,6.029,13.3006,4.60045,2470.614,2021-5-09T13:06:42Z
2021-05-09T11:08:35Z,42.805,6.029,13.3013,4.60054,2470.624,2021-5-09T13:09:45Z
2021-05-09T11:11:38Z,42.805,6.029,13.3012,4.60057,2470.646,2021-5-09T13:12:48Z
2021-05-09T11:14:41Z,42.805,6.029,13.3009,4.60042,2470.591,2021-5-09T13:15:51Z
2021-05-09T11:17:44Z,42.805,6.029,13.3010,4.60046,2470.637,2021-5-09T13:18:54Z
2021-05-09T11:20:47Z,42.805,6.029,13.3018,4.60057,2470.6,2021-5-09T13:21:58Z
2021-05-09T11:23:50Z,42.805,6.029,13.3021,4.60055,2470.614,2021-5-09T13:25:01Z
2021-05-09T11:26:53Z,42.805,6.029,13.3013,4.60074,2470.661,2021-5-09T13:28:04Z
2021-05-09T11:29:56Z,42.805,6.029,13.3026,4.60043,2470.6,2021-5-09T13:31:07Z
2021-05-09T11:33:00Z,42.805,6.029,13.3024,4.60059,2470.577,2021-5-09T13:34:10Z
2021-05-09T11:36:03Z,42.805,6.029,13.3011,4.60068,2470.614,2021-5-09T13:37:13Z
2021-05-09T11:39:06Z,42.805,6.029,13.3011,4.60068,2470.624,2021-5-09T13:40:16Z
2021-05-09T11:42:09Z,42.805,6.029,13.3019,4.60073,2470.637,2021-5-09T13:43:19Z
2021-05-09T11:45:12Z,42.805,6.029,13.3009,4.60039,2470.6,2021-5-09T13:46:23Z
2021-05-09T11:48:15Z,42.805,6.029,13.3006,4.60058,2470.6,2021-5-09T13:49:26Z
2021-05-09T11:51:18Z,42.805,6.029,13.3020,4.60073,2470.614,2021-5-09T13:52:29Z
2021-05-09T11:54:21Z,42.805,6.029,13.3015,4.60063,2470.624,2021-5-09T13:55:32Z
2021-05-09T11:57:25Z,42.805,6.029,13.3010,4.60064,2470.614,2021-5-09T13:58:35Z
2021-05-09T12:00:28Z,42.805,6.029,13.3009,4.60070,2470.61,2021-5-09T14:01:38Z
2021-05-09T12:03:31Z,42.805,6.029,13.3011,4.60057,2470.624,2021-5-09T14:04:41Z
2021-05-09T12:06:34Z,42.805,6.029,13.3014,4.60059,2470.6,2021-5-09T14:07:44Z
2021-05-09T12:09:37Z,42.805,6.029,13.3011,4.60070,2470.624,2021-5-09T14:10:48Z
2021-05-09T12:12:40Z,42.805,6.029,13.3020,4.60042,2470.637,2021-5-09T14:13:51Z
2021-05-09T12:15:43Z,42.805,6.029,13.3006,4.60062,2470.624,2021-5-09T14:16:54Z
2021-05-09T12:18:46Z,42.805,6.029,13.3021,4.60072,2470.6,2021-5-09T14:19:57Z
2021-05-09T12:21:49Z,42.805,6.029,13.3011,4.60073,2470.577,2021-5-09T14:23:00Z
2021-05-09T12:24:53Z,42.805,6.029,13.3010,4.60089,2470.637,2021-5-09T14:26:03Z
2021-05-09T12:27:56Z,42.805,6.029,13.3016,4.60081,2470.6,2021-5-09T14:29:06Z
2021-05-09T12:30:59Z,42.805,6.029,13.3010,4.60071,2470.6,2021-5-09T14:32:09Z
2021-05-09T12:34:02Z,42.805,6.029,13.3004,4.60073,2470.6,2021-5-09T14:35:12Z
2021-05-09T12:37:05Z,42.805,6.029,13.3021,4.60059,2470.591,2021-5-09T14:38:16Z
2021-05-09T12:40:08Z,42.805,6.029,13.3012,4.60057,2470.614,2021-5-09T14:41:19Z
2021-05-09T12:43:11Z,42.805,6.029,13.3022,4.60042,2470.624,2021-5-09T14:44:22Z
2021-05-09T12:46:14Z,42.805,6.029,13.3014,4.60072,2470.577,2021-5-09T14:47:25Z
2021-05-09T12:49:18Z,42.805,6.029,13.3010,4.60055,2470.614,2021-5-09T14:50:28Z
2021-05-09T12:52:21Z,42.805,6.029,13.3024,4.60086,2470.637,2021-5-09T14:53:31Z
2021-05-09T12:55:24Z,42.805,6.029,13.3016,4.60071,2470.6,2021-5-09T14:56:34Z
2021-05-09T12:58:27Z,42.805,6.029,13.3037,4.60057,2470.6,2021-5-09T14:59:37Z
2021-05-09T13:01:30Z,42.805,6.029,13.3016,4.60064,2470.591,2021-5-09T15:02:41Z
2021-05-09T13:04:33Z,42.805,6.029,13.3009,4.60074,2470.577,2021-5-09T15:05:44Z
2021-05-09T13:07:36Z,42.805,6.029,13.3013,4.60064,2470.577,2021-5-09T15:08:47Z
2021-05-09T13:10:39Z,42.805,6.029,13.3021,4.60062,2470.577,2021-5-09T15:11:50Z
2021-05-09T13:13:43Z,42.805,6.029,13.3024,4.60046,2470.614,2021-5-09T15:14:53Z
2021-05-09T13:16:46Z,42.805,6.029,13.3015,4.60073,2470.6,2021-5-09T15:17:56Z
2021-05-09T13:19:49Z,42.805,6.029,13.3018,4.60066,2470.553,2021-5-09T15:20:59Z
2021-05-09T13:22:52Z,42.805,6.029,13.3019,4.60053,2470.6,2021-5-09T15:24:02Z
2021-05-09T13:25:55Z,42.805,6.029,13.3015,4.60091,2470.624,2021-5-09T15:27:06Z
2021-05-09T13:28:58Z,42.805,6.029,13.3019,4.60056,2470.577,2021-5-09T15:30:09Z
2021-05-09T13:32:01Z,42.805,6.029,13.3017,4.60068,2470.637,2021-5-09T15:33:12Z
2021-05-09T13:35:04Z,42.805,6.029,13.3034,4.60073,2470.614,2021-5-09T15:36:15Z
2021-05-09T13:38:08Z,42.805,6.029,13.3010,4.60076,2470.614,2021-5-09T15:39:18Z
2021-05-09T13:41:11Z,42.805,6.029,13.3015,4.60082,2470.6,2021-5-09T15:42:21Z
2021-05-09T13:44:14Z,42.805,6.029,13.3016,4.60078,2470.6,2021-5-09T15:45:24Z
2021-05-09T13:47:17Z,42.805,6.029,13.3016,4.60069,2470.624,2021-5-09T15:48:27Z
2021-05-09T13:50:20Z,42.805,6.029,13.3015,4.60074,2470.614,2021-5-09T15:51:31Z
2021-05-09T13:53:23Z,42.805,6.029,13.3026,4.60081,2470.591,2021-5-09T15:54:34Z
2021-05-09T13:56:26Z,42.805,6.029,13.3020,4.60050,2470.591,2021-5-09T15:57:37Z
2021-05-09T13:59:29Z,42.805,6.029,13.3018,4.60084,2470.577,2021-5-09T16:00:40Z
2021-05-09T14:02:33Z,42.805,6.029,13.3011,4.60085,2470.577,2021-5-09T16:03:43Z
2021-05-09T14:05:36Z,42.805,6.029,13.3025,4.60061,2470.6,2021-5-09T16:06:46Z
2021-05-09T14:08:39Z,42.805,6.029,13.3019,4.60079,2470.624,2021-5-09T16:09:49Z
2021-05-09T14:11:42Z,42.805,6.029,13.3029,4.60096,2470.614,2021-5-09T16:12:52Z
2021-05-09T14:14:45Z,42.805,6.029,13.3031,4.60039,2470.577,2021-5-09T16:15:56Z
2021-05-09T14:17:48Z,42.805,6.029,13.3037,4.60068,2470.614,2021-5-09T16:18:59Z
2021-05-09T14:20:51Z,42.805,6.029,13.3024,4.60053,2470.614,2021-5-09T16:22:02Z
2021-05-09T14:23:54Z,42.805,6.029,13.3019,4.60064,2470.624,2021-5-09T16:25:05Z
2021-05-09T14:26:58Z,42.805,6.029,13.3028,4.60055,2470.577,2021-5-09T16:28:08Z
2021-05-09T14:30:01Z,42.805,6.029,13.3031,4.60031,2470.637,2021-5-09T16:31:11Z
2021-05-09T14:33:04Z,42.805,6.029,13.3037,4.60085,2470.624,2021-5-09T16:34:14Z
2021-05-09T14:36:07Z,42.805,6.029,13.3027,4.60047,2470.6,2021-5-09T16:37:17Z
2021-05-09T14:39:10Z,42.805,6.029,13.3038,4.60052,2470.67,2021-5-09T16:40:21Z
2021-05-09T14:42:13Z,42.805,6.029,13.3028,4.60051,2470.624,2021-5-09T16:43:24Z
2021-05-09T14:45:16Z,42.805,6.029,13.3030,4.60074,2470.6,2021-5-09T16:46:27Z
2021-05-09T14:48:19Z,42.805,6.029,13.3040,4.60081,2470.637,2021-5-09T16:49:30Z
2021-05-09T14:51:23Z,42.805,6.029,13.3021,4.60019,2470.637,2021-5-09T16:52:33Z
2021-05-09T14:54:26Z,42.805,6.029,13.3008,4.60014,2470.684,2021-5-09T16:55:36Z
2021-05-09T14:57:29Z,42.805,6.029,13.2992,4.60010,2470.624,2021-5-09T16:58:39Z
2021-05-09T15:00:32Z,42.805,6.029,13.3000,4.60009,2470.646,2021-5-09T17:01:42Z
2021-05-09T15:03:35Z,42.805,6.029,13.3019,4.60035,2470.684,2021-5-09T17:04:46Z
2021-05-09T15:06:38Z,42.805,6.029,13.3000,4.60013,2470.67,2021-5-09T17:07:49Z
2021-05-09T15:09:41Z,42.805,6.029,13.2996,4.60008,2470.67,2021-5-09T17:10:52Z
2021-05-09T15:12:44Z,42.805,6.029,13.3036,4.60073,2470.646,2021-5-09T17:13:55Z